Weather History for KIDI - September, 2013

Change the Weather History Date:

Saturday, September 21, 2013

  Actual Average Record
Temperature  
Mean Temperature 62 °F -  
Max Temperature 68 °F 72 °F 88 °F (1965)
Min Temperature 55 °F 52 °F 27 °F (1956)
Degree Days  
Heating Degree Days 4    
Growing Degree Days 12 (Base 50)    
Moisture  
Dew Point 62 °F    
Average Humidity 98    
Maximum Humidity 100    
Minimum Humidity 94    
Precipitation  
Precipitation 1.06 in - - ()
Sea Level Pressure  
Sea Level Pressure 29.78 in    
Wind  
Wind Speed 5 mph (South)    
Max Wind Speed 22 mph    
Max Gust Speed 32 mph    
Visibility 9 miles    
Events      
Averages and records for this station are not official NWS values.
T = Trace of Precipitation, MM = Missing Value Source: NWS Daily Summary

Daily Weather History Graph

Daily Weather History Graph

Search for Another Location

Airport or City:

Trip Planner

Search our weather history database for the weather conditions in past years. The results will help you decide how hot, cold, wet, or windy it might be!

Date:

Astronomy

Sep. 21, 2013 Rise Set
Actual Time 7:03 AM EDT 7:14 PM EDT
Civil Twilight 6:35 AM EDT 7:42 PM EDT
Nautical Twilight 6:03 AM EDT 8:14 PM EDT
Astronomical Twilight 5:31 AM EDT 8:46 PM EDT
Moon 8:23 PM EDT (9/21) 9:20 AM EDT (9/21)
Length of Visible Light 13h 06m
Length of Day
12h 11m
Waning Gibbous, 94% of the Moon is Illuminated
Sep 21
Waning Gibbous
Sep 26
Last Quarter
Oct 4
New
Oct 11
First Quarter
Oct 18
Full

Hourly Weather History & Observations

Time (EDT) Temp. Dew Point Humidity Pressure Visibility Wind Dir Wind Speed Gust Speed Precip Events Conditions
12:15 AM 66.2 °F 64.4 °F 94% 29.90 in 10.0 mi South 4.6 mph - N/A   Unknown
12:35 AM 66.2 °F 64.4 °F 94% 29.89 in 10.0 mi South 4.6 mph - N/A   Unknown
12:55 AM 66.2 °F 64.4 °F 94% 29.88 in 10.0 mi SSE 5.8 mph - N/A   Unknown
1:15 AM 66.2 °F 64.4 °F 94% 29.88 in 10.0 mi SSE 8.1 mph - N/A   Unknown
1:35 AM 66.2 °F 64.4 °F 94% 29.87 in 10.0 mi SSE 6.9 mph - N/A   Unknown
1:55 AM 66.2 °F 64.4 °F 94% 29.87 in 10.0 mi South 6.9 mph - N/A   Unknown
2:15 AM 66.2 °F 64.4 °F 94% 29.86 in 10.0 mi South 10.4 mph - N/A   Unknown
2:35 AM 66.2 °F 64.4 °F 94% 29.86 in 10.0 mi South 5.8 mph - N/A   Unknown
2:55 AM 66.2 °F 64.4 °F 94% 29.85 in 10.0 mi South 6.9 mph - N/A   Unknown
3:15 AM 66.2 °F 64.4 °F 94% 29.85 in 10.0 mi South 8.1 mph - N/A   Unknown
3:35 AM 66.2 °F 66.2 °F 100% 29.84 in 10.0 mi South 8.1 mph - N/A   Unknown
3:55 AM 66.2 °F 66.2 °F 100% 29.83 in 10.0 mi South 6.9 mph - N/A   Unknown
4:15 AM 66.2 °F 66.2 °F 100% 29.83 in 10.0 mi South 5.8 mph - N/A   Unknown
4:35 AM 66.2 °F 66.2 °F 100% 29.82 in 10.0 mi South 5.8 mph - N/A   Unknown
4:55 AM 66.2 °F 66.2 °F 100% 29.82 in 10.0 mi South 6.9 mph - N/A   Unknown
5:15 AM 66.2 °F 66.2 °F 100% 29.81 in 10.0 mi SSE 5.8 mph - N/A   Unknown
5:35 AM 66.2 °F 66.2 °F 100% 29.80 in 7.0 mi SSE 11.5 mph - N/A   Unknown
5:55 AM 66.2 °F 66.2 °F 100% 29.80 in 7.0 mi SSE 8.1 mph - 0.02 in   Unknown
6:15 AM 64.4 °F 64.4 °F 100% 29.80 in 10.0 mi SSE 8.1 mph - N/A   Unknown
6:35 AM 64.4 °F 64.4 °F 100% 29.79 in 10.0 mi SSE 8.1 mph - N/A   Unknown
6:55 AM 64.4 °F 64.4 °F 100% 29.78 in 10.0 mi SSE 8.1 mph - N/A   Unknown
7:15 AM 64.4 °F 64.4 °F 100% 29.78 in 10.0 mi SSE 6.9 mph - N/A   Unknown
7:35 AM 64.4 °F 64.4 °F 100% 29.78 in 10.0 mi SSE 6.9 mph - N/A   Unknown
7:55 AM 64.4 °F 64.4 °F 100% 29.78 in 10.0 mi SSE 5.8 mph - N/A   Unknown
8:15 AM 66.2 °F 66.2 °F 100% 29.77 in 10.0 mi SSE 5.8 mph - N/A   Unknown
8:35 AM 66.2 °F 66.2 °F 100% 29.77 in 10.0 mi SSE 4.6 mph - N/A   Unknown
8:55 AM 66.2 °F 66.2 °F 100% 29.77 in 10.0 mi South 4.6 mph - N/A   Unknown
9:15 AM 68.0 °F 66.2 °F 94% 29.77 in 10.0 mi South 5.8 mph - N/A   Unknown
9:35 AM 68.0 °F 66.2 °F 94% 29.77 in 10.0 mi South 6.9 mph - N/A   Unknown
9:55 AM 68.0 °F 66.2 °F 94% 29.76 in 10.0 mi South 8.1 mph - N/A   Unknown
10:15 AM 68.0 °F 66.2 °F 94% 29.76 in 10.0 mi South 8.1 mph - N/A   Unknown
10:35 AM 68.0 °F 66.2 °F 94% 29.75 in 10.0 mi South 5.8 mph - N/A   Unknown
10:55 AM 68.0 °F 66.2 °F 94% 29.75 in 10.0 mi South 4.6 mph - N/A   Unknown
11:15 AM 68.0 °F 66.2 °F 94% 29.74 in 10.0 mi South 3.5 mph - N/A   Unknown
11:35 AM 68.0 °F 66.2 °F 94% 29.73 in 10.0 mi SSE 5.8 mph - N/A   Unknown
11:55 AM 68.0 °F 68.0 °F 100% 29.72 in 7.0 mi SSE 3.5 mph - N/A   Unknown
12:15 PM 68.0 °F 68.0 °F 100% 29.70 in 7.0 mi SSE 5.8 mph - N/A   Unknown
12:35 PM 68.0 °F 66.2 °F 94% 29.73 in 7.0 mi NW 21.9 mph 32.2 mph N/A   Unknown
12:55 PM 60.8 °F 60.8 °F 100% 29.74 in 2.0 mi North 9.2 mph 20.7 mph 0.24 in   Unknown
1:15 PM 60.8 °F 60.8 °F 100% 29.74 in 4.0 mi NNW 8.1 mph 16.1 mph 0.11 in   Unknown
1:35 PM 59.0 °F 59.0 °F 100% 29.76 in 5.0 mi Calm Calm - 0.17 in   Unknown
1:55 PM 60.8 °F 60.8 °F 100% 29.75 in 1.0 mi Calm Calm - 0.32 in   Unknown
2:15 PM 59.0 °F 59.0 °F 100% 29.75 in 4.0 mi NNW 4.6 mph - 0.07 in   Unknown
2:35 PM 59.0 °F 59.0 °F 100% 29.76 in 1.8 mi Calm Calm - 0.18 in   Unknown
2:55 PM 59.0 °F 59.0 °F 100% 29.77 in 4.0 mi Calm Calm - 0.24 in   Unknown
3:15 PM 59.0 °F 59.0 °F 100% 29.75 in 10.0 mi Calm Calm - 0.03 in   Unknown
3:35 PM 59.0 °F 59.0 °F 100% 29.75 in 10.0 mi Calm Calm - 0.06 in   Unknown
3:55 PM 59.0 °F 59.0 °F 100% 29.75 in 10.0 mi Calm Calm - 0.08 in   Unknown
4:15 PM 59.0 °F 59.0 °F 100% 29.74 in 10.0 mi Calm Calm - 0.02 in   Unknown
4:35 PM 59.0 °F 59.0 °F 100% 29.73 in 10.0 mi Calm Calm - 0.04 in   Unknown
4:55 PM 59.0 °F 59.0 °F 100% 29.72 in 10.0 mi ESE 6.9 mph - 0.06 in   Unknown
5:15 PM 60.8 °F 60.8 °F 100% 29.72 in 10.0 mi Calm Calm - 0.02 in   Unknown
5:35 PM 59.0 °F 59.0 °F 100% 29.73 in 10.0 mi Calm Calm - 0.04 in   Unknown
5:55 PM 59.0 °F 59.0 °F 100% 29.73 in 10.0 mi Calm Calm - 0.05 in   Unknown
6:15 PM 59.0 °F 59.0 °F 100% 29.73 in 10.0 mi West 3.5 mph - N/A   Unknown
6:35 PM 59.0 °F 59.0 °F 100% 29.74 in 10.0 mi West 6.9 mph - N/A   Unknown
6:55 PM 60.8 °F 60.8 °F 100% 29.75 in 10.0 mi West 6.9 mph - N/A   Unknown
7:15 PM 59.0 °F 59.0 °F 100% 29.76 in 7.0 mi WNW 6.9 mph - N/A   Unknown
7:35 PM 59.0 °F 59.0 °F 100% 29.76 in 5.0 mi West 4.6 mph - N/A   Unknown
7:55 PM 57.2 °F 57.2 °F 100% 29.77 in 3.0 mi NW 6.9 mph - 0.03 in   Unknown
8:15 PM 57.2 °F 57.2 °F 100% 29.77 in 5.0 mi SSW 5.8 mph - 0.02 in   Unknown
8:35 PM 57.2 °F 57.2 °F 100% 29.78 in 10.0 mi WSW 3.5 mph - 0.02 in   Unknown
8:55 PM 57.2 °F 57.2 °F 100% 29.78 in 10.0 mi Calm Calm - 0.02 in   Unknown
9:15 PM 57.2 °F 57.2 °F 100% 29.79 in 10.0 mi Calm Calm - N/A   Unknown
9:35 PM 57.2 °F 57.2 °F 100% 29.79 in 7.0 mi Calm Calm - N/A   Unknown
9:55 PM 57.2 °F 57.2 °F 100% 29.79 in 7.0 mi Calm Calm - N/A   Unknown
10:15 PM 57.2 °F 57.2 °F 100% 29.79 in 7.0 mi WSW 4.6 mph - N/A   Unknown
10:35 PM 57.2 °F 57.2 °F 100% 29.79 in 5.0 mi WSW 4.6 mph - N/A   Unknown
10:55 PM 57.2 °F 57.2 °F 100% 29.80 in 7.0 mi Calm Calm - N/A   Unknown
11:15 PM 57.2 °F 57.2 °F 100% 29.80 in 10.0 mi Calm Calm - N/A   Unknown
11:35 PM 55.4 °F 55.4 °F 100% 29.81 in 10.0 mi Calm Calm - N/A   Unknown
11:55 PM 55.4 °F 55.4 °F 100% 29.81 in 10.0 mi Calm Calm - N/A   Unknown